GW3664 Weather Reports


time (UTC)temp
C
wind
direction
speed
KPH
gust
KPH
rain 1hr
cm
rain 24hr
cm
rain mn
cm
humidity
%
barometer
mb
20260502220053 20 38 4.8 22.5 0.00 0.00 0.00 33 1015.0
20260502215550 20 41 8.0 22.5 0.00 0.00 0.00 32 1015.1
20260502215050 20 48 12.9 22.5 0.00 0.00 0.00 32 1015.1
20260502214552 20 79 12.9 22.5 0.00 0.00 0.00 33 1015.1
20260502214050 20 80 14.5 22.5 0.00 0.00 0.00 34 1015.3
20260502213551 20 79 9.7 22.5 0.00 0.00 0.00 33 1015.3
20260502213054 20 72 9.7 22.5 0.00 0.00 0.00 33 1015.3
20260502212551 21 52 8.0 22.5 0.00 0.00 0.00 31 1015.4
20260502212051 21 27 6.4 22.5 0.00 0.00 0.00 31 1015.4
20260502211556 21 77 4.8 19.3 0.00 0.00 0.00 30 1015.4
20260502211053 21 34 9.7 19.3 0.00 0.00 0.00 30 1015.5
20260502210553 21 46 6.4 17.7 0.00 0.00 0.00 28 1015.4
20260502210052 21 11 6.4 17.7 0.00 0.00 0.00 30 1015.5
20260502205550 21 5 6.4 20.9 0.00 0.00 0.00 29 1015.6
20260502205050 21 50 4.8 20.9 0.00 0.00 0.00 30 1015.6
20260502204607 22 44 11.3 20.9 0.00 0.00 0.00 28 1015.6
20260502204050 22 18 6.4 16.1 0.00 0.00 0.00 28 1015.6
20260502203550 22 343 4.8 20.9 0.00 0.00 0.00 30 1015.6
20260502203059 22 350 8.0 20.9 0.00 0.00 0.00 29 1015.7
20260502202550 22 310 8.0 20.9 0.00 0.00 0.00 29 1015.7
20260502202051 21 335 3.2 17.7 0.00 0.00 0.00 28 1015.7
20260502201552 21 346 8.0 17.7 0.00 0.00 0.00 29 1015.7
20260502201051 21 67 8.0 17.7 0.00 0.00 0.00 29 1015.7
20260502200551 21 57 6.4 14.5 0.00 0.00 0.00 26 1015.7
20260502200057 21 17 4.8 14.5 0.00 0.00 0.00 29 1015.7
20260502195626 21 30 3.2 16.1 0.00 0.00 0.00 28 1015.8
20260502195050 22 67 4.8 16.1 0.00 0.00 0.00 26 1015.9
20260502194555 21 325 3.2 11.3 0.00 0.00 0.00 28 1016.0
20260502194052 21 19 4.8 19.3 0.00 0.00 0.00 28 1015.9
20260502193551 21 71 4.8 19.3 0.00 0.00 0.00 27 1015.9
20260502193055 21 55 4.8 16.1 0.00 0.00 0.00 28 1016.0
20260502192551 21 346 8.0 16.1 0.00 0.00 0.00 28 1016.0
20260502192050 21 11 9.7 17.7 0.00 0.00 0.00 30 1016.1
20260502191603 21 27 6.4 17.7 0.00 0.00 0.00 32 1016.1
20260502191053 22 52 9.7 17.7 0.00 0.00 0.00 27 1016.1
20260502190551 22 333 3.2 11.3 0.00 0.00 0.00 26 1016.2
20260502190056 22 0 1.6 16.1 0.00 0.00 0.00 24 1016.3
20260502185553 22 319 8.0 17.7 0.00 0.00 0.00 25 1016.4
20260502185050 22 54 6.4 17.7 0.00 0.00 0.00 25 1016.3
20260502184555 22 324 9.7 17.7 0.00 0.00 0.00 24 1016.3
20260502184051 22 74 1.6 16.1 0.00 0.00 0.00 27 1016.2
20260502183551 22 343 4.8 16.1 0.00 0.00 0.00 26 1016.3
20260502183100 22 9 3.2 12.9 0.00 0.00 0.00 26 1016.4
20260502182551 22 5 3.2 22.5 0.00 0.00 0.00 29 1016.3
20260502182050 22 5 1.6 22.5 0.00 0.00 0.00 27 1016.4
20260502181603 22 318 6.4 22.5 0.00 0.00 0.00 28 1016.5
20260502181051 22 327 4.8 9.7 0.00 0.00 0.00 26 1016.4
20260502180551 22 263 1.6 9.7 0.00 0.00 0.00 25 1016.5
20260502164049 19 197 4.8 16.1 0.00 0.00 0.00 24 1016.9
20260502163552 19 196 8.0 16.1 0.00 0.00 0.00 24 1016.9
20260502163108 19 225 4.8 12.9 0.00 0.00 0.00 25 1016.8
20260502162552 19 243 6.4 12.9 0.00 0.00 0.00 24 1016.8
20260502162052 18 236 3.2 16.1 0.00 0.00 0.00 26 1017.0
20260502161559 18 231 4.8 16.1 0.00 0.00 0.00 25 1017.0
20260502161051 18 207 6.4 17.7 0.00 0.00 0.00 25 1017.0
20260502160550 18 231 8.0 17.7 0.00 0.00 0.00 26 1017.0
20260502152052 16 219 4.8 12.9 0.00 0.00 0.00 31 1017.2
20260502151557 15 212 3.2 9.7 0.00 0.00 0.00 31 1017.1
20260502151051 14 0 3.2 9.7 0.00 0.00 0.00 36 1017.3
20260502150549 13 175 3.2 9.7 0.00 0.00 0.00 43 1017.2
20260502150105 13 96 3.2 9.7 0.00 0.00 0.00 45 1017.2
20260502130551 9 0 0.0 3.2 0.00 0.00 0.00 47 1016.7
20260502130108 9 0 0.0 3.2 0.00 0.00 0.00 45 1016.7
20260502123550 9 0 0.0 6.4 0.00 0.00 0.00 40 1016.4
20260502123100 9 149 0.0 6.4 0.00 0.00 0.00 40 1016.5
20260502122550 8 0 0.0 4.8 0.00 0.00 0.00 42 1016.4
20260502122051 8 0 0.0 4.8 0.00 0.00 0.00 44 1016.3
20260502121549 8 0 0.0 4.8 0.00 0.00 0.00 46 1016.3
20260502121050 8 248 0.0 1.6 0.00 0.00 0.00 46 1016.3
20260502120549 8 0 0.0 1.6 0.00 0.00 0.00 42 1016.4
20260502115549 8 0 0.0 11.3 0.00 0.00 0.00 44 1016.4
20260502115052 7 292 0.0 11.3 0.00 0.00 0.00 46 1016.4
20260502114605 7 309 3.2 8.0 0.00 0.00 0.00 48 1016.5
20260502114051 6 332 3.2 8.0 0.00 0.00 0.00 53 1016.4
20260502113551 6 0 0.0 8.0 0.00 0.00 0.00 56 1016.3
20260502113053 5 317 1.6 8.0 0.00 0.00 0.00 57 1016.4
20260502112550 4 0 3.2 8.0 0.00 0.00 0.00 62 1016.3
20260502112050 5 327 0.0 4.8 0.00 0.00 0.00 63 1016.0
20260502111557 5 0 0.0 0.0 0.00 0.00 0.00 66 1016.0
20260502111053 5 0 0.0 0.0 0.00 0.00 0.00 64 1016.0
20260502110551 5 0 0.0 0.0 0.00 0.00 0.00 60 1016.0
20260502110055 5 0 0.0 0.0 0.00 0.00 0.00 60 1015.9
20260502105553 5 0 0.0 1.6 0.00 0.00 0.00 59 1015.9
20260502105050 5 0 0.0 1.6 0.00 0.00 0.00 61 1015.9
20260502104552 5 0 0.0 4.8 0.00 0.00 0.00 61 1015.9
20260502104049 5 0 0.0 4.8 0.00 0.00 0.00 63 1015.9
20260502103549 5 117 1.6 4.8 0.00 0.00 0.00 61 1015.8
20260502103051 6 0 0.0 4.8 0.00 0.00 0.00 58 1015.8
20260502102553 6 117 0.0 4.8 0.00 0.00 0.00 57 1015.8
20260502102049 6 117 1.6 9.7 0.00 0.00 0.00 56 1015.8
20260502101552 6 117 1.6 9.7 0.00 0.00 0.00 52 1015.7
20260502101049 7 111 1.6 4.8 0.00 0.00 0.00 51 1015.8
20260502100552 8 113 1.6 4.8 0.00 0.00 0.00 46 1015.7
20260502091054 8 0 0.0 0.0 0.00 0.00 0.00 48 1015.7
20260502090549 8 0 0.0 0.0 0.00 0.00 0.00 48 1015.7
20260502080106 4 0 0.0 0.0 0.00 0.00 0.00 61 1015.8
20260502071051 4 0 0.0 1.6 0.00 0.00 0.00 65 1016.3
20260502070551 4 0 0.0 1.6 0.00 0.00 0.00 65 1016.3
20260502070054 4 0 0.0 1.6 0.00 0.00 0.00 65 1016.3
20260502065551 4 0 0.0 1.6 0.00 0.00 0.00 64 1016.2
20260502065050 4 0 0.0 3.2 0.00 0.00 0.00 65 1016.2
20260502064600 4 0 0.0 3.2 0.00 0.00 0.00 63 1016.2
20260502064050 5 323 0.0 3.2 0.00 0.00 0.00 64 1016.2
20260502063551 5 0 0.0 0.0 0.00 0.00 0.00 64 1016.2
20260502063122 5 0 0.0 0.0 0.00 0.00 0.00 63 1016.3
20260502062552 5 0 0.0 0.0 0.00 0.00 0.00 63 1016.3
20260502062050 5 0 0.0 0.0 0.00 0.00 0.00 63 1016.3
20260502061559 5 0 0.0 0.0 0.00 0.00 0.00 61 1016.3
20260502061051 5 0 0.0 0.0 0.00 0.00 0.00 62 1016.2
20260502060550 5 0 0.0 0.0 0.00 0.00 0.00 63 1016.2
20260502060058 5 0 0.0 0.0 0.00 0.00 0.00 63 1016.2
20260502055551 5 0 0.0 0.0 0.00 0.00 0.00 63 1016.2
20260502055051 5 0 0.0 0.0 0.00 0.00 0.00 63 1016.1
20260502054606 5 0 0.0 0.0 0.00 0.00 0.00 61 1016.2
20260502054051 5 0 0.0 0.0 0.00 0.00 0.00 62 1016.2
20260502053551 5 0 0.0 1.6 0.00 0.00 0.00 61 1016.1
20260502053103 6 0 0.0 1.6 0.00 0.00 0.00 62 1016.1
20260502052553 6 0 0.0 1.6 0.00 0.00 0.00 62 1016.1
20260502052052 6 0 0.0 1.6 0.00 0.00 0.00 62 1016.1
20260502051554 6 0 0.0 1.6 0.00 0.00 0.00 61 1016.0
20260502051050 6 0 0.0 1.6 0.00 0.00 0.00 61 1016.0
20260502050550 6 0 0.0 1.6 0.00 0.00 0.00 61 1016.0
20260502050058 6 0 0.0 1.6 0.00 0.00 0.00 61 1016.0
20260502045551 6 0 0.0 0.0 0.00 0.00 0.00 60 1016.0
20260502045050 6 0 0.0 1.6 0.00 0.00 0.00 60 1016.0
20260502044556 6 0 0.0 1.6 0.00 0.00 0.00 61 1015.9
20260502044053 6 0 0.0 4.8 0.00 0.00 0.00 59 1015.9
20260502043550 6 0 0.0 4.8 0.00 0.00 0.00 59 1015.8
20260502043056 6 0 0.0 4.8 0.00 0.00 0.00 59 1015.9
20260502042551 7 0 0.0 6.4 0.00 0.00 0.00 60 1015.8
20260502042052 7 0 0.0 6.4 0.00 0.00 0.00 58 1015.9
20260502041557 7 314 1.6 6.4 0.00 0.00 0.00 57 1015.9
20260502041050 7 0 0.0 4.8 0.00 0.00 0.00 57 1016.0
20260502040551 8 0 0.0 4.8 0.00 0.00 0.00 57 1016.1
20260502040058 8 316 1.6 4.8 0.00 0.00 0.00 55 1016.1
20260502035550 8 322 0.0 4.8 0.00 0.00 0.00 56 1016.0
20260502035051 8 342 0.0 4.8 0.00 0.00 0.00 54 1016.0
20260502034556 8 0 1.6 4.8 0.00 0.00 0.00 52 1016.0
20260502034051 9 0 1.6 4.8 0.00 0.00 0.00 53 1016.0
20260502033550 9 320 1.6 4.8 0.00 0.00 0.00 52 1016.0
20260502033055 9 0 0.0 4.8 0.00 0.00 0.00 52 1016.1
20260502032552 9 0 1.6 4.8 0.00 0.00 0.00 52 1016.0
20260502032050 10 0 0.0 3.2 0.00 0.00 0.00 54 1016.0
20260502031552 10 320 1.6 3.2 0.00 0.00 0.00 52 1016.0
20260502031049 10 0 0.0 3.2 0.00 0.00 0.00 51 1015.8
20260502030551 11 320 1.6 3.2 0.00 0.00 0.00 50 1015.7
20260502030054 11 0 0.0 0.0 0.00 0.00 0.00 54 1015.7
20260502025552 11 0 0.0 0.0 0.00 0.00 0.00 47 1015.6
20260502025056 12 0 0.0 0.0 0.00 0.00 0.00 47 1015.5
20260502024603 12 0 0.0 0.0 0.00 0.00 0.00 44 1015.5
20260502024051 13 0 0.0 0.0 0.00 0.00 0.00 42 1015.5
20260502023551 14 0 0.0 0.0 0.00 0.00 0.00 41 1015.6
20260502023052 15 0 0.0 0.0 0.00 0.00 0.00 39 1015.5
20260502022550 16 0 0.0 0.0 0.00 0.00 0.00 38 1015.5
20260502022053 16 0 0.0 0.0 0.00 0.00 0.00 36 1015.6
20260502021554 17 0 0.0 0.0 0.00 0.00 0.00 34 1015.6
20260502021051 18 0 0.0 0.0 0.00 0.00 0.00 32 1015.7
20260502020552 20 0 0.0 0.0 0.00 0.00 0.00 31 1015.7
20260502020053 20 0 0.0 0.0 0.00 0.00 0.00 30 1015.8
20260502015551 20 0 0.0 0.0 0.00 0.00 0.00 25 1015.7
20260502015050 20 0 0.0 1.6 0.00 0.00 0.00 24 1015.7
20260502014553 21 0 0.0 1.6 0.00 0.00 0.00 29 1015.6
20260502014050 21 0 0.0 3.2 0.00 0.00 0.00 27 1015.6
20260502013553 22 0 0.0 3.2 0.00 0.00 0.00 21 1015.6
20260502013051 22 0 1.6 3.2 0.00 0.00 0.00 22 1015.6
20260502012553 22 0 0.0 3.2 0.00 0.00 0.00 21 1015.6
20260502012051 22 0 0.0 3.2 0.00 0.00 0.00 22 1015.7
20260502011550 22 0 0.0 3.2 0.00 0.00 0.00 20 1015.6
20260502011050 22 0 0.0 6.4 0.00 0.00 0.00 18 1015.7
20260502010552 22 321 1.6 6.4 0.00 0.00 0.00 20 1015.7
20260502010054 22 263 1.6 6.4 0.00 0.00 0.00 19 1015.8
20260502005551 22 242 1.6 8.0 0.00 0.00 0.00 19 1015.9
20260502005051 22 293 0.0 9.7 0.00 0.00 0.00 19 1015.9
20260502004553 22 267 4.8 12.9 0.00 0.00 0.00 18 1015.9
20260502004051 22 230 6.4 12.9 0.00 0.00 0.00 18 1016.0
20260502003550 22 250 1.6 14.5 0.00 0.00 0.00 18 1015.9
20260502003056 22 208 6.4 14.5 0.00 0.00 0.00 18 1016.0
20260502002550 22 227 4.8 9.7 0.00 0.00 0.00 17 1016.0
20260502002051 22 196 3.2 12.9 0.00 0.00 0.00 17 1016.0
20260502001558 22 212 3.2 12.9 0.00 0.00 0.00 18 1016.0
20260502001053 22 224 4.8 12.9 0.00 0.00 0.00 17 1016.0
20260502000551 22 336 1.6 8.0 0.00 0.00 0.00 18 1016.1
20260502000105 23 78 1.6 6.4 0.00 0.00 0.00 18 1016.0
20260501235551 22 294 0.0 9.7 0.00 0.00 0.00 18 1016.1
20260501235054 22 306 1.6 12.9 0.00 0.00 0.00 18 1016.2
20260501234556 22 285 3.2 12.9 0.00 0.00 0.00 19 1016.2
20260501234051 22 250 6.4 12.9 0.00 0.00 0.00 17 1016.3
20260501233551 23 260 1.6 9.7 0.00 0.00 0.00 18 1016.2
20260501233059 23 141 1.6 9.7 0.00 0.00 0.00 18 1016.3
20260501232551 23 213 1.6 9.7 0.00 0.00 0.00 18 1016.2
20260501232050 22 0 4.8 12.9 0.00 0.00 0.00 18 1016.3
20260501231634 22 0 4.8 12.9 0.00 0.00 0.00 18 1016.3
20260501231053 23 191 3.2 11.3 0.00 0.00 0.00 18 1016.3
20260501230550 23 0 1.6 11.3 0.00 0.00 0.00 19 1016.3
20260501230101 22 0 0.0 12.9 0.00 0.00 0.00 16 1016.3
20260501225554 22 321 4.8 12.9 0.00 0.00 0.00 17 1016.3
20260501225050 22 345 1.6 11.3 0.00 0.00 0.00 17 1016.3
20260501224611 22 195 4.8 11.3 0.00 0.00 0.00 19 1016.4
20260501224052 22 288 3.2 14.5 0.00 0.00 0.00 19 1016.4
20260501223551 22 345 1.6 17.7 0.00 0.00 0.00 20 1016.3
20260501223100 22 253 8.0 17.7 0.00 0.00 0.00 20 1016.4
20260501222552 22 306 8.0 17.7 0.00 0.00 0.00 18 1016.4
20260501222051 22 0 3.2 9.7 0.00 0.00 0.00 16 1016.4
20260501221607 22 277 0.0 6.4 0.00 0.00 0.00 19 1016.5
20260501221050 22 57 1.6 8.0 0.00 0.00 0.00 18 1016.6
20260501220550 22 0 3.2 14.5 0.00 0.00 0.00 18 1016.6